Home   Weather   Södertälje   Past weeks

Flag for Sweden Past Weather in Södertälje, Sweden — Yesterday and Last 2 Weeks

Now
37 °F

Light rain. Partly sunny.


Feels Like: 30 °F
Forecast: 33 / 44 °F
Wind: 10 mph from Southeast

Location: Stockholm Bromma Airport

Current Time: Apr 25, 2017 at 2:44:09 pm

Latest Report: Apr 25, 2017 at 1:50 pm


Visibility: N/A

Pressure: 29.33 "Hg

Humidity: 87%

Dew Point: 34 °F

Location of SödertäljeLocation

Past Weather in Södertälje — Graph

°F

Södertälje Temperature Yesterday

Maximum temperature yesterday: 48 °F (at 10:20 am)
Minimum temperature yesterday: 25 °F (at 5:20 am)
Average temperature yesterday: 37 °F

High & Low Weather Summary for the Past Weeks

 TemperatureHumidityPressure
High55 °F (Apr 21, 12:50 pm)100% (Apr 18, 2:20 am)30.51 "Hg (Apr 18, 2:20 am)
Low19 °F (Apr 15, 5:50 am)25% (Apr 19, 2:50 pm)29.27 "Hg (Apr 25, 12:50 am)
Average37 °F64%29.81 "Hg
* Reported Apr 10 1:20 pm — Apr 25 1:20 pm, Södertälje, Weather by CustomWeather, © 2017

Note: Actual official high and low records may vary slightly from our data, if they occured in-between our weather recording intervals... More about our weather records

Advertising

Södertälje Weather History for the Previous 24 Hours

Scroll right to see more
 ConditionsComfort  
Time TempWeatherWind HumidityBarometerVisibility
1:20 pm
Tue, Apr 25
36 °FLight rain. Partly sunny.7 mph93%29.33 "Hg5 mi
12:50 pm36 °FRain. Partly sunny.9 mph93%29.33 "Hg2 mi
12:20 pm36 °FLight rain. Partly sunny.8 mph93%29.33 "Hg5 mi
11:50 am36 °FLight rain. Partly sunny.5 mph87%29.33 "Hg3 mi
11:20 am36 °FRain. Broken clouds.8 mph93%29.33 "Hg2 mi
10:50 am36 °FLight rain. Broken clouds.10 mph87%29.33 "HgN/A
10:20 am36 °FPartly sunny.8 mph87%29.33 "HgN/A
9:50 am36 °FBroken clouds.9 mph87%29.33 "HgN/A
9:20 am36 °FLight rain. Fog.9 mph87%29.33 "Hg5 mi
8:50 am34 °FLight rain. Fog.9 mph93%29.33 "Hg3 mi
8:20 am36 °FPartly sunny.9 mph81%29.30 "HgN/A
7:50 am36 °FPartly sunny.10 mph81%29.30 "HgN/A
7:20 am34 °FBroken clouds.8 mph87%29.30 "HgN/A
6:50 am34 °FPassing clouds.8 mph87%29.30 "HgN/A
6:20 am34 °FSunny.8 mph87%29.30 "Hg10 mi
5:50 am34 °FSunny.7 mph87%29.30 "Hg10 mi
5:20 am34 °FChilly.8 mph87%29.30 "HgN/A
4:50 am34 °FPassing clouds.6 mph93%29.30 "HgN/A
4:20 am34 °FMostly cloudy.7 mph93%29.30 "HgN/A
3:50 am34 °FPartly cloudy.8 mph93%29.30 "HgN/A
3:20 am32 °FLight snow. Mostly cloudy.8 mph100%29.30 "Hg1 mi
2:50 am36 °FLight rain. Mostly cloudy.14 mph87%29.30 "Hg4 mi
2:20 am37 °FOvercast.10 mph81%29.27 "HgN/A
1:50 am37 °FPartly cloudy.10 mph87%29.27 "HgN/A
1:20 am37 °FOvercast.9 mph87%29.30 "HgN/A
12:50 am39 °FOvercast.8 mph81%29.27 "HgN/A
12:20 am39 °FMostly cloudy.7 mph87%29.30 "HgN/A
11:50 pm
Mon, Apr 24
39 °FOvercast.6 mph93%29.30 "HgN/A
11:20 pm39 °FLight rain. Overcast.5 mph93%29.30 "Hg5 mi
10:50 pm37 °FLow clouds.5 mph100%29.30 "Hg6 mi
10:20 pm37 °FLow clouds.6 mph100%29.33 "HgN/A
9:50 pm37 °FLow clouds.8 mph93%29.33 "HgN/A
9:20 pm37 °FPassing clouds.9 mph93%29.36 "HgN/A
8:50 pm36 °FLight rain. Passing clouds.14 mph93%29.36 "Hg4 mi
8:20 pm36 °FLight rain. Partly sunny.15 mph93%29.39 "Hg4 mi
7:50 pm36 °FLight rain. Partly sunny.14 mph93%29.39 "Hg4 mi
7:20 pm36 °FLight rain. Partly sunny.17 mph93%29.42 "Hg3 mi
6:50 pm36 °FLight rain. Partly sunny.14 mph93%29.45 "Hg4 mi
6:20 pm36 °FLight rain. Partly sunny.16 mph93%29.45 "Hg4 mi
5:50 pm36 °FLight rain. Partly sunny.18 mph93%29.47 "Hg4 mi
5:20 pm37 °FLight rain. Partly sunny.18 mph87%29.50 "Hg4 mi
4:50 pm37 °FLight rain. Cloudy.21 mph87%29.50 "Hg4 mi
4:20 pm39 °FDrizzle. Broken clouds.21 mph65%29.53 "HgN/A
3:50 pm43 °FBroken clouds.18 mph57%29.53 "HgN/A
3:20 pm45 °FBroken clouds.20 mph57%29.56 "HgN/A
2:50 pm45 °FBroken clouds.18 mph53%29.56 "HgN/A
Weather by CustomWeather, © 2017

See weather overviewHow to use our weather pages